QPF
0.00 0.00 0.00 0.00 0.00 0.00 0.00 0.00 0.00 0.00 0.00 0.00 0.00 0.00 0.00 0.00 0.00 0.00 0.00 0.00 0.00 0.00 0.00 0.00 0.00 0.00 0.00 0.00 0.00 0.00 0.00 0.00 0.00 0.00 0.00 0.00 0.00 0.00 0.00 0.00 0.00 0.00 0.00 0.00
0.00 0.00 0.00 0.00 0.00 0.00 0.00 0.00 0.00 0.00 0.00 0.00 0.00 0.00 0.00 0.00 0.00 0.00 0.00 0.00 0.00 0.00 0.00 0.00 0.00 0.00 0.00 0.00 0.00 0.00 0.00 0.00 0.00 0.00 0.00 0.00 0.00 0.00 0.00 0.00 0.00 0.00 0.00 0.00
0.00 0.00 0.00 0.00 0.00 0.00 0.00 0.00 0.00 0.00 0.00 0.00 0.00 0.00 0.00 0.00 0.00 0.00 0.00 0.00 0.00 0.00 0.00 0.00 0.00 0.00 0.00 0.00 0.00 0.00 0.00 0.00 0.00 0.00 0.00 0.00 0.00 0.00 0.00 0.00 0.00 0.00 0.00 0.00
0.00 0.00 0.00 0.00 0.00 0.00 0.00 0.00 0.00 0.00 0.00 0.00 0.00 0.00 0.00 0.00 0.00 0.00 0.00 0.00 0.00 0.00 0.00 0.00 0.00 0.00 0.00 0.00 0.00 0.00 0.00 0.00 0.00 0.00 0.00 0.00 0.00 0.00 0.00 0.00 0.00 0.00 0.00 0.01
0.00 0.00 0.00 0.00 0.00 0.00 0.00 0.00 0.00 0.00 0.00 0.00 0.00 0.00 0.00 0.00 0.00 0.00 0.00 0.00 0.00 0.00 0.00 0.00 0.00 0.00 0.00 0.00 0.00 0.00 0.00 0.00 0.00 0.00 0.00 0.00 0.00 0.00 0.00 0.00 0.00 0.00 0.02 0.01
0.00 0.00 0.00 0.00 0.00 0.00 0.00 0.00 0.00 0.00 0.00 0.00 0.00 0.00 0.00 0.00 0.00 0.00 0.00 0.00 0.00 0.00 0.00 0.00 0.00 0.00 0.00 0.00 0.00 0.00 0.00 0.00 0.00 0.00 0.00 0.00 0.00 0.00 0.00 0.00 0.00 0.00 0.00 0.00
0.00 0.00 0.00 0.00 0.00 0.00 0.00 0.00 0.00 0.00 0.00 0.00 0.00 0.00 0.00 0.00 0.00 0.00 0.00 0.00 0.00 0.00 0.00 0.00 0.00 0.00 0.00 0.00 0.00 0.00 0.00 0.00 0.00 0.00 0.00 0.00 0.00 0.00 0.00 0.00 0.00 0.00 0.00 0.00
0.00 0.00 0.00 0.00 0.00 0.00 0.00 0.00 0.00 0.00 0.00 0.00 0.00 0.00 0.00 0.00 0.00 0.00 0.00 0.00 0.00 0.00 0.00 0.00 0.00 0.00 0.00 0.00 0.00 0.00 0.00 0.00 0.00 0.00 0.00 0.00 0.00 0.00 0.00 0.00 0.00 0.00 0.00 0.00
0.00 0.00 0.00 0.00 0.00 0.00 0.00 0.00 0.00 0.00 0.00 0.00 0.00 0.00 0.00 0.00 0.00 0.00 0.00 0.00 0.00 0.00 0.00 0.00 0.00 0.00 0.00 0.00 0.00 0.00 0.00 0.00 0.00 0.00 0.00 0.00 0.00 0.00 0.00 0.00 0.00 0.00 0.00 0.01
0.00 0.00 0.00 0.00 0.00 0.00 0.00 0.00 0.00 0.00 0.00 0.00 0.00 0.00 0.00 0.00 0.00 0.00 0.00 0.00 0.00 0.00 0.00 0.00 0.00 0.00 0.00 0.00 0.00 0.00 0.00 0.00 0.00 0.00 0.00 0.00 0.00 0.00 0.00 0.00 0.00 0.00 0.00 0.00
0.00 0.00 0.00 0.00 0.00 0.00 0.00 0.00 0.00 0.00 0.00 0.00 0.00 0.00 0.00 0.00 0.00 0.00 0.00 0.00 0.00 0.00 0.00 0.00 0.00 0.00 0.00 0.00 0.00 0.00 0.00 0.00 0.00 0.00 0.00 0.00 0.00 0.00 0.00 0.00 0.00 0.00 0.00 0.00
0.00 0.00 0.00 0.00 0.00 0.00 0.00 0.00 0.00 0.00 0.00 0.00 0.00 0.00 0.00 0.00 0.00 0.00 0.00 0.00 0.00 0.00 0.00 0.00 0.00 0.00 0.00 0.00 0.00 0.00 0.00 0.00 0.00 0.00 0.00 0.00 0.00 0.00 0.00 0.00 0.00 0.00 0.00 0.00
0.00 0.00 0.00 0.00 0.00 0.00 0.00 0.00 0.00 0.00 0.00 0.00 0.00 0.00 0.00 0.00 0.00 0.00 0.00 0.00 0.00 0.00 0.00 0.00 0.00 0.00 0.00 0.00 0.00 0.00 0.00 0.00 0.00 0.00 0.00 0.00 0.00 0.00 0.00 0.00 0.00 0.00 0.00 0.00
0.00 0.00 0.00 0.00 0.00 0.00 0.00 0.00 0.00 0.00 0.00 0.00 0.00 0.00 0.00 0.00 0.00 0.00 0.00 0.00 0.00 0.00 0.00 0.00 0.00 0.00 0.00 0.00 0.00 0.00 0.00 0.00 0.00 0.00 0.00 0.00 0.00 0.00 0.00 0.00 0.00 0.00 0.00 0.00
0.00 0.00 0.00 0.00 0.00 0.00 0.00 0.00 0.00 0.00 0.00 0.00 0.00 0.00 0.00 0.00 0.00 0.00 0.00 0.00 0.00 0.00 0.00 0.00 0.00 0.00 0.00 0.00 0.00 0.00 0.00 0.00 0.00 0.00 0.00 0.00 0.00 0.00 0.00 0.00 0.00 0.00 0.00 0.00
0.00 0.00 0.00 0.00 0.00 0.00 0.00 0.00 0.00 0.00 0.00 0.00 0.00 0.00 0.00 0.00 0.00 0.00 0.00 0.00 0.00 0.00 0.00 0.00 0.00 0.00 0.00 0.00 0.00 0.00 0.00 0.00 0.00 0.00 0.00 0.00 0.00 0.00 0.00 0.00 0.00 0.00 0.00 0.00
0.00 0.00 0.00 0.00 0.00 0.00 0.00 0.00 0.00 0.00 0.00 0.00 0.00 0.00 0.00 0.00 0.00 0.00 0.00 0.00 0.00 0.00 0.00 0.00 0.00 0.00 0.00 0.00 0.00 0.00 0.00 0.00 0.00 0.00 0.00 0.00 0.00 0.00 0.00 0.00 0.00 0.00 0.00 0.00
0.00 0.00 0.00 0.00 0.00 0.00 0.00 0.00 0.00 0.00 0.00 0.00 0.00 0.00 0.00 0.00 0.00 0.00 0.00 0.00 0.00 0.00 0.00 0.00 0.00 0.00 0.00 0.00 0.00 0.00 0.00 0.00 0.00 0.00 0.00 0.00 0.00 0.00 0.00 0.00 0.00 0.00 0.00 0.00
0.00 0.00 0.00 0.00 0.00 0.00 0.00 0.00 0.00 0.00 0.00 0.00 0.00 0.00 0.00 0.00 0.00 0.00 0.00 0.00 0.00 0.00 0.00 0.00 0.00 0.00 0.00 0.00 0.00 0.00 0.01 0.00 0.00 0.00 0.00 0.00 0.00 0.00 0.00 0.00 0.00 0.00 0.02 0.00
0.00 0.00 0.00 0.00 0.00 0.00 0.00 0.00 0.00 0.00 0.00 0.00 0.00 0.00 0.00 0.00 0.00 0.00 0.00 0.00 0.00 0.00 0.00 0.00 0.00 0.00 0.00 0.00 0.00 0.00 0.00 0.00 0.00 0.00 0.00 0.00 0.00 0.00 0.00 0.00 0.00 0.02 0.05 0.11
0.00 0.00 0.00 0.00 0.00 0.00 0.00 0.00 0.00 0.00 0.00 0.00 0.00 0.00 0.00 0.00 0.00 0.00 0.01 0.02 0.00 0.00 0.00 0.00 0.00 0.00 0.00 0.00 0.00 0.00 0.00 0.00 0.00 0.00 0.00 0.00 0.00 0.00 0.00 0.00 0.00 0.01 0.16 0.24
0.00 0.00 0.00 0.00 0.00 0.00 0.00 0.00 0.00 0.00 0.00 0.00 0.00 0.01 0.00 0.00 0.00 0.00 0.01 0.00 0.00 0.00 0.00 0.00 0.00 0.00 0.01 0.01 0.00 0.00 0.00 0.00 0.00 0.00 0.00 0.00 0.00 0.00 0.00 0.00 0.00 0.02 0.05 0.03
0.00 0.00 0.00 0.00 0.00 0.00 0.00 0.00 0.00 0.00 0.00 0.01 0.02 0.04 0.03 0.02 0.01 0.00 0.00 0.00 0.00 0.00 0.00 0.00 0.00 0.01 0.06 0.05 0.02 0.01 0.00 0.00 0.00 0.00 0.00 0.00 0.00 0.00 0.00 0.00 0.01 0.04 0.02 0.01
0.00 0.00 0.00 0.00 0.00 0.00 0.00 0.00 0.00 0.00 0.00 0.00 0.00 0.01 0.03 0.04 0.03 0.01 0.00 0.00 0.00 0.00 0.00 0.00 0.01 0.03 0.09 0.13 0.12 0.10 0.06 0.08 0.12 0.08 0.03 0.03 0.07 0.07 0.09 0.06 0.01 0.01 0.00 0.00
0.00 0.00 0.00 0.00 0.00 0.00 0.00 0.00 0.00 0.00 0.00 0.00 0.00 0.00 0.00 0.01 0.01 0.00 0.00 0.00 0.00 0.00 0.00 0.00 0.00 0.01 0.09 0.15 0.24 0.28 0.28 0.27 0.26 0.25 0.17 0.12 0.05 0.03 0.02 0.00 0.00 0.00 0.00 0.00
0.00 0.00 0.00 0.00 0.00 0.00 0.00 0.00 0.00 0.00 0.00 0.00 0.00 0.00 0.00 0.00 0.00 0.00 0.00 0.00 0.00 0.00 0.00 0.00 0.00 0.00 0.07 0.13 0.11 0.17 0.13 0.10 0.18 0.16 0.14 0.07 0.01 0.00 0.00 0.00 0.00 0.00 0.00 0.00
MSLP
1009.50 1010.33 1010.47 1010.22 1010.16 1009.72 1009.54 1009.08 1008.42 1007.08 1006.14 1006.56 1006.92 1007.07 1006.78 1006.52 1007.16 1007.67 1008.12 1008.67 1009.12 1009.46 1009.65 1010.31 1010.77 1011.43 1012.27 1012.91 1013.64 1014.19 1014.77 1015.41 1015.96 1016.55 1016.91 1017.20 1017.43 1017.50 1017.53 1017.56 1017.59 1017.50 1017.57 1017.78
1010.32 1010.23 1009.65 1009.65 1009.68 1009.63 1009.21 1008.72 1007.53 1006.05 1005.75 1006.43 1006.61 1006.57 1006.24 1006.19 1005.98 1006.47 1007.23 1007.78 1008.25 1009.09 1009.50 1009.87 1010.35 1010.98 1011.70 1012.37 1013.04 1013.89 1014.43 1015.12 1015.72 1016.12 1016.39 1016.70 1017.01 1017.09 1016.93 1017.06 1017.21 1017.22 1017.31 1017.58
1010.00 1008.91 1008.78 1009.34 1008.94 1009.10 1008.35 1008.00 1007.02 1006.54 1005.71 1005.98 1006.27 1006.54 1006.13 1005.89 1005.69 1005.92 1006.11 1006.51 1007.45 1007.85 1008.46 1009.11 1009.64 1010.29 1011.22 1011.95 1012.48 1013.20 1013.90 1014.60 1015.26 1015.70 1016.23 1016.60 1016.91 1017.01 1017.03 1017.12 1017.09 1016.91 1017.07 1017.25
1009.42 1008.17 1008.52 1008.50 1008.48 1008.03 1007.94 1006.45 1006.58 1006.59 1006.74 1006.88 1006.70 1006.54 1006.17 1005.49 1005.39 1005.18 1005.45 1005.94 1006.48 1007.06 1007.45 1008.11 1008.93 1009.62 1010.19 1010.89 1011.78 1012.40 1013.25 1014.09 1014.84 1015.34 1015.85 1016.22 1016.55 1016.91 1016.91 1016.88 1016.82 1016.75 1016.88 1016.99
1007.99 1007.53 1007.52 1007.55 1006.97 1006.77 1006.87 1006.32 1006.68 1006.89 1007.25 1007.74 1007.47 1007.63 1005.23 1005.05 1004.81 1004.36 1004.50 1004.89 1005.42 1005.88 1006.49 1007.24 1007.79 1008.38 1009.26 1010.31 1011.08 1011.84 1012.61 1013.51 1014.18 1014.80 1015.28 1015.74 1016.15 1016.43 1016.59 1016.79 1016.88 1016.91 1016.94 1016.99
1007.71 1006.69 1006.68 1005.86 1005.36 1005.38 1005.38 1006.26 1007.29 1008.11 1008.79 1009.33 1007.71 1008.00 1005.58 1005.03 1003.39 1003.28 1003.28 1003.86 1004.38 1005.08 1005.76 1006.22 1006.99 1008.17 1009.10 1009.99 1010.76 1011.51 1012.35 1012.96 1013.64 1014.22 1014.79 1015.29 1015.75 1016.13 1016.55 1016.80 1016.96 1016.97 1017.01 1017.05
1007.43 1006.36 1005.47 1005.20 1005.18 1005.03 1005.64 1007.55 1008.99 1010.17 1010.65 1009.89 1008.40 1008.01 1005.16 1002.95 1001.97 1001.65 1002.05 1002.64 1003.38 1004.19 1005.06 1005.94 1006.86 1007.82 1008.67 1009.38 1010.25 1011.12 1011.94 1012.63 1013.12 1013.75 1014.33 1014.84 1015.31 1015.78 1016.11 1016.41 1016.66 1016.89 1016.98 1016.92
1007.90 1006.25 1004.65 1004.27 1004.42 1005.08 1005.88 1007.55 1009.10 1010.51 1011.37 1009.86 1008.27 1006.83 1003.55 1001.54 1000.52 1000.81 1001.07 1001.49 1002.35 1003.37 1003.91 1004.81 1005.55 1006.52 1007.53 1008.58 1009.59 1010.55 1011.42 1012.13 1012.68 1013.21 1013.80 1014.38 1014.86 1015.34 1015.67 1015.87 1016.09 1016.38 1016.50 1016.35
1007.00 1005.86 1004.25 1003.74 1003.51 1004.03 1005.45 1006.90 1007.71 1009.64 1010.72 1010.63 1008.13 1005.71 1002.74 1001.00 1000.89 1000.98 1000.95 1001.56 1001.88 1002.46 1003.11 1004.01 1004.98 1005.78 1006.77 1007.75 1008.53 1009.43 1010.59 1011.46 1012.09 1012.61 1013.26 1013.77 1014.31 1014.74 1015.12 1015.39 1015.64 1015.91 1016.00 1016.06
1005.72 1005.76 1003.89 1002.98 1002.66 1003.51 1004.23 1005.44 1007.68 1009.57 1010.52 1010.42 1008.39 1006.18 1003.53 1001.71 1001.03 1000.71 1001.03 1001.12 1001.41 1001.99 1002.57 1003.69 1004.50 1005.12 1006.00 1006.99 1008.04 1009.12 1009.91 1010.51 1011.18 1011.98 1012.57 1013.04 1013.53 1014.10 1014.52 1014.85 1015.17 1015.34 1015.42 1015.67
1004.94 1005.58 1003.91 1003.59 1003.47 1003.83 1004.45 1005.34 1006.91 1008.38 1009.42 1009.69 1008.79 1006.35 1003.24 1002.22 1001.11 1000.49 1000.54 1000.49 1000.78 1001.62 1002.31 1003.06 1003.84 1004.42 1005.31 1006.42 1007.39 1008.40 1009.42 1010.20 1010.88 1011.41 1011.91 1012.46 1013.06 1013.59 1013.98 1014.34 1014.55 1014.77 1014.93 1015.04
1003.96 1004.74 1005.04 1003.99 1002.87 1002.92 1003.51 1004.37 1005.78 1007.92 1008.78 1008.77 1007.88 1005.55 1003.23 1002.09 1001.56 1001.13 1001.02 1000.73 1000.92 1001.54 1001.91 1002.67 1003.45 1004.33 1005.26 1006.11 1007.07 1007.88 1008.87 1009.58 1010.15 1010.69 1011.33 1011.76 1012.30 1012.91 1013.35 1013.71 1013.88 1014.21 1014.50 1014.69
1003.97 1004.66 1005.13 1004.62 1003.73 1003.30 1003.55 1004.09 1005.00 1006.03 1007.07 1007.44 1007.37 1005.09 1003.01 1002.01 1001.72 1000.98 1001.04 1001.16 1001.23 1001.67 1002.33 1002.78 1003.60 1004.24 1004.92 1005.86 1006.78 1007.59 1008.30 1008.94 1009.73 1010.37 1010.92 1011.42 1011.81 1012.25 1012.65 1013.00 1013.39 1013.71 1013.94 1014.09
1003.74 1004.63 1004.92 1004.67 1004.05 1003.88 1003.77 1003.74 1004.24 1005.22 1006.47 1006.40 1005.89 1004.48 1003.25 1002.10 1001.52 1001.41 1001.26 1001.54 1001.56 1001.94 1002.84 1003.08 1003.72 1004.26 1004.83 1005.54 1006.23 1007.03 1007.86 1008.53 1009.21 1009.91 1010.48 1010.85 1011.14 1011.50 1011.93 1012.43 1012.85 1013.15 1013.43 1013.73
1005.26 1005.57 1005.23 1004.80 1004.27 1003.88 1003.75 1003.70 1003.71 1004.35 1005.01 1005.07 1005.06 1004.45 1003.26 1002.30 1001.55 1001.37 1001.39 1001.54 1002.15 1002.36 1002.88 1003.22 1003.63 1004.10 1004.50 1005.18 1005.84 1006.58 1007.39 1008.03 1008.63 1009.36 1009.92 1010.14 1010.41 1010.82 1011.31 1011.75 1012.11 1012.51 1012.85 1013.01
1006.59 1006.70 1006.28 1005.40 1004.64 1004.07 1003.72 1003.51 1003.40 1003.58 1004.14 1004.37 1004.74 1004.35 1003.34 1002.43 1002.02 1002.30 1002.26 1002.29 1002.23 1002.53 1002.79 1002.83 1003.10 1003.69 1004.16 1004.59 1005.09 1005.87 1006.62 1007.27 1007.96 1008.66 1009.02 1009.46 1009.95 1010.30 1010.66 1011.10 1011.55 1011.93 1012.15 1012.38
1007.99 1007.87 1007.84 1007.08 1005.65 1004.76 1004.14 1003.36 1003.05 1003.10 1003.58 1004.11 1005.07 1005.13 1004.18 1003.63 1003.71 1003.90 1003.56 1003.23 1003.14 1003.11 1002.95 1002.89 1003.05 1003.05 1003.40 1004.00 1004.40 1005.10 1005.75 1006.56 1007.25 1007.81 1008.34 1008.81 1009.21 1009.63 1010.01 1010.39 1010.95 1011.29 1011.46 1011.75
1008.20 1008.69 1008.70 1008.50 1007.33 1006.19 1004.64 1003.68 1003.42 1003.84 1004.55 1004.86 1005.01 1004.83 1004.46 1004.60 1004.54 1004.33 1004.40 1004.19 1003.83 1003.31 1002.86 1002.92 1002.88 1003.09 1003.03 1003.26 1003.77 1004.31 1005.19 1005.87 1006.46 1007.11 1007.64 1008.09 1008.50 1008.94 1009.35 1009.77 1010.09 1010.39 1010.77 1011.14
1007.40 1008.28 1008.96 1009.06 1008.79 1007.28 1005.51 1004.55 1004.07 1004.15 1005.27 1005.39 1005.61 1005.68 1005.56 1005.21 1005.03 1005.07 1004.87 1004.59 1004.35 1003.81 1003.36 1003.01 1002.65 1002.74 1003.09 1003.40 1003.56 1004.15 1004.98 1005.44 1006.08 1006.55 1007.01 1007.43 1007.86 1008.27 1008.68 1008.99 1009.24 1009.55 1010.07 1010.41
1007.63 1007.72 1008.72 1009.26 1009.10 1008.75 1007.52 1005.91 1004.62 1004.40 1005.32 1005.69 1005.71 1006.08 1006.36 1005.97 1006.35 1006.31 1005.47 1005.00 1004.57 1004.41 1004.07 1003.49 1003.05 1002.79 1002.85 1003.17 1003.54 1004.09 1004.68 1005.16 1005.46 1005.82 1006.21 1006.75 1007.18 1007.60 1008.04 1008.37 1008.69 1008.92 1009.34 1009.79
1008.66 1008.40 1008.70 1009.03 1008.82 1008.26 1007.71 1006.44 1005.35 1006.04 1006.86 1006.58 1006.19 1005.78 1006.13 1006.62 1006.52 1006.23 1005.67 1005.37 1005.08 1004.91 1004.80 1004.41 1004.02 1003.50 1003.02 1003.07 1003.39 1004.04 1004.41 1004.57 1004.54 1005.23 1005.82 1006.37 1006.79 1007.17 1007.54 1008.15 1008.57 1008.98 1009.40 1010.25
1010.09 1009.75 1009.54 1009.06 1008.70 1008.61 1007.70 1006.83 1007.02 1007.51 1007.63 1007.69 1007.64 1007.20 1007.14 1006.87 1006.62 1006.18 1006.20 1005.97 1005.61 1005.44 1004.97 1005.14 1005.05 1004.59 1003.85 1003.81 1003.66 1004.15 1004.72 1004.86 1004.91 1005.27 1005.79 1006.41 1006.83 1007.28 1007.80 1008.39 1009.17 1009.50 1009.77 1010.40
1010.82 1010.49 1010.27 1009.95 1009.17 1008.25 1007.77 1007.75 1007.17 1007.33 1007.66 1007.89 1007.88 1008.26 1008.37 1008.00 1007.80 1007.25 1006.79 1006.10 1005.85 1005.74 1005.61 1005.58 1005.59 1005.35 1005.02 1004.69 1004.00 1004.45 1005.04 1005.23 1005.24 1005.57 1006.21 1006.72 1007.24 1007.74 1008.16 1008.72 1009.50 1010.21 1010.57 1010.83
1011.43 1010.40 1010.35 1009.85 1009.39 1008.80 1008.19 1008.02 1007.69 1007.68 1007.67 1007.64 1007.64 1007.77 1008.23 1007.93 1007.73 1007.61 1007.03 1006.32 1006.11 1005.99 1005.92 1006.07 1005.94 1005.88 1005.75 1005.57 1005.39 1005.55 1005.43 1005.47 1005.64 1006.30 1006.73 1007.27 1007.75 1008.25 1008.77 1009.21 1009.50 1010.01 1010.85 1011.40
1011.75 1010.84 1011.13 1010.66 1010.02 1009.25 1008.68 1008.49 1008.39 1007.88 1007.96 1007.70 1007.69 1007.73 1007.67 1007.39 1007.14 1006.95 1006.71 1006.50 1006.34 1006.23 1006.15 1006.33 1006.39 1006.34 1005.99 1005.83 1006.15 1005.95 1006.18 1006.09 1006.84 1007.28 1007.18 1007.37 1007.78 1008.80 1009.50 1010.06 1010.59 1010.49 1010.96 1011.16
1012.02 1011.86 1011.80 1011.44 1010.80 1010.52 1009.64 1008.75 1008.27 1008.05 1007.98 1007.49 1007.36 1007.28 1007.06 1006.95 1006.75 1006.63 1006.47 1006.11 1006.14 1006.11 1006.18 1006.27 1006.45 1006.25 1006.21 1005.98 1005.86 1005.96 1006.30 1006.53 1006.52 1007.87 1007.87 1008.03 1008.31 1008.93 1009.61 1010.11 1010.79 1011.10 1011.38 1011.56
Thickness
5800 5775 5761 5774 5778 5785 5784 5779 5775 5798 5822 5806 5797 5798 5808 5823 5819 5812 5807 5806 5803 5803 5810 5805 5803 5801 5795 5791 5786 5782 5778 5773 5770 5767 5764 5763 5762 5763 5762 5767 5771 5774 5776 5775
5779 5759 5785 5793 5789 5783 5783 5776 5781 5810 5824 5808 5801 5799 5815 5824 5826 5824 5816 5813 5813 5807 5808 5807 5806 5803 5798 5793 5789 5783 5781 5776 5773 5771 5769 5766 5764 5765 5769 5771 5772 5773 5774 5773
5761 5783 5799 5789 5787 5778 5784 5777 5789 5794 5816 5816 5810 5792 5808 5820 5829 5828 5831 5830 5824 5820 5812 5811 5810 5807 5802 5795 5791 5786 5783 5780 5776 5774 5770 5768 5766 5766 5766 5768 5770 5773 5773 5774
5772 5798 5791 5785 5779 5787 5763 5807 5805 5802 5791 5763 5806 5765 5790 5812 5815 5826 5828 5828 5828 5827 5825 5821 5815 5810 5808 5803 5799 5794 5788 5784 5779 5776 5772 5769 5764 5761 5766 5769 5773 5774 5773 5774
5776 5793 5785 5779 5790 5799 5788 5807 5805 5805 5793 5779 5784 5761 5793 5818 5807 5821 5829 5831 5834 5837 5834 5826 5823 5820 5817 5810 5804 5799 5794 5788 5784 5780 5777 5774 5769 5769 5769 5768 5768 5769 5771 5773
5785 5811 5803 5799 5813 5812 5822 5809 5787 5778 5765 5741 5780 5767 5778 5794 5820 5828 5838 5837 5839 5840 5839 5837 5832 5823 5815 5812 5806 5802 5795 5790 5787 5784 5779 5775 5771 5770 5766 5765 5764 5766 5768 5771
5777 5793 5809 5816 5799 5813 5802 5764 5724 5729 5722 5729 5769 5759 5790 5825 5839 5846 5842 5844 5845 5844 5841 5836 5828 5820 5816 5812 5809 5804 5797 5791 5789 5784 5781 5777 5774 5770 5768 5767 5765 5764 5764 5767
5750 5752 5801 5819 5803 5789 5790 5765 5725 5714 5712 5738 5775 5754 5798 5840 5858 5857 5857 5856 5854 5847 5847 5843 5841 5833 5826 5819 5812 5807 5800 5794 5791 5787 5782 5779 5776 5773 5770 5770 5769 5767 5767 5770
5746 5761 5813 5819 5821 5813 5789 5764 5779 5749 5742 5728 5755 5788 5825 5845 5843 5842 5845 5846 5849 5847 5849 5845 5842 5838 5832 5826 5819 5814 5804 5798 5794 5790 5786 5782 5778 5775 5773 5772 5772 5770 5770 5772
5780 5755 5802 5818 5826 5817 5802 5801 5761 5733 5730 5723 5742 5760 5775 5820 5831 5842 5840 5842 5848 5851 5852 5845 5841 5840 5836 5831 5823 5815 5809 5803 5799 5794 5791 5788 5785 5780 5778 5776 5773 5772 5774 5773
5786 5770 5792 5809 5791 5784 5785 5777 5769 5756 5738 5724 5720 5754 5811 5823 5837 5844 5847 5855 5849 5846 5851 5847 5844 5844 5841 5834 5827 5819 5811 5805 5799 5796 5793 5789 5786 5783 5780 5777 5776 5777 5776 5777
5792 5770 5756 5779 5811 5813 5799 5789 5772 5736 5740 5736 5735 5753 5821 5824 5833 5837 5838 5847 5850 5846 5849 5849 5846 5842 5836 5831 5825 5819 5813 5807 5804 5799 5795 5792 5789 5785 5783 5780 5780 5780 5778 5778
5790 5756 5736 5758 5784 5798 5794 5793 5786 5768 5752 5748 5737 5755 5822 5826 5827 5833 5835 5840 5842 5843 5839 5841 5842 5838 5832 5829 5822 5817 5814 5809 5805 5799 5795 5792 5789 5787 5786 5784 5783 5780 5779 5780
5792 5757 5755 5752 5766 5780 5778 5784 5790 5772 5732 5749 5752 5779 5803 5824 5830 5828 5832 5835 5838 5839 5832 5831 5834 5836 5830 5828 5823 5818 5813 5810 5805 5799 5795 5792 5791 5791 5788 5786 5784 5782 5779 5777
5768 5753 5764 5766 5774 5780 5780 5781 5785 5775 5770 5760 5772 5775 5792 5806 5817 5822 5829 5830 5830 5833 5829 5829 5828 5831 5830 5827 5824 5820 5815 5811 5807 5800 5796 5795 5795 5793 5790 5787 5785 5783 5781 5780
5749 5737 5741 5754 5769 5771 5764 5777 5780 5781 5780 5776 5773 5772 5797 5807 5812 5809 5814 5817 5822 5825 5830 5834 5834 5832 5829 5829 5828 5822 5818 5814 5811 5803 5800 5799 5796 5793 5791 5788 5785 5783 5781 5780
5725 5721 5716 5713 5746 5750 5736 5762 5772 5779 5775 5769 5743 5763 5786 5785 5789 5788 5795 5803 5806 5813 5822 5824 5828 5832 5833 5830 5832 5825 5821 5817 5812 5807 5804 5801 5799 5796 5793 5791 5786 5783 5782 5781
5716 5703 5698 5693 5713 5694 5743 5770 5773 5762 5759 5756 5756 5763 5777 5777 5781 5785 5789 5791 5797 5809 5816 5819 5823 5825 5833 5834 5833 5831 5823 5818 5813 5808 5806 5804 5802 5798 5796 5792 5789 5787 5784 5780
5716 5697 5687 5680 5669 5696 5727 5747 5748 5746 5734 5744 5744 5751 5762 5771 5775 5772 5783 5789 5792 5800 5808 5813 5819 5822 5819 5821 5823 5821 5816 5815 5811 5808 5806 5805 5804 5800 5798 5794 5792 5790 5785 5781
5707 5698 5685 5666 5664 5657 5691 5722 5745 5745 5705 5741 5747 5746 5744 5752 5731 5745 5770 5779 5785 5789 5796 5801 5809 5816 5816 5816 5816 5812 5810 5809 5810 5811 5810 5807 5805 5802 5798 5796 5792 5790 5786 5781
5665 5675 5667 5655 5653 5668 5681 5705 5726 5691 5691 5717 5731 5737 5738 5729 5734 5747 5759 5763 5770 5775 5780 5786 5789 5798 5805 5808 5809 5805 5804 5806 5813 5810 5808 5805 5803 5800 5797 5792 5787 5783 5777 5770
5644 5642 5640 5650 5652 5644 5679 5689 5679 5684 5694 5694 5701 5707 5714 5724 5731 5739 5740 5745 5753 5758 5767 5769 5770 5775 5786 5792 5796 5795 5793 5798 5801 5801 5798 5794 5792 5790 5786 5781 5774 5771 5767 5760
5627 5636 5632 5641 5643 5664 5675 5673 5683 5683 5680 5683 5684 5684 5688 5696 5700 5709 5720 5733 5739 5745 5749 5751 5753 5757 5762 5771 5780 5777 5781 5784 5788 5788 5784 5782 5780 5778 5776 5770 5764 5757 5754 5750
5624 5639 5630 5640 5646 5655 5665 5667 5670 5673 5674 5676 5678 5680 5677 5682 5689 5691 5700 5712 5719 5725 5727 5729 5734 5739 5744 5752 5756 5758 5765 5770 5771 5770 5770 5769 5767 5764 5762 5760 5759 5753 5744 5737
5616 5628 5616 5618 5628 5637 5646 5650 5655 5660 5661 5667 5668 5667 5671 5677 5682 5687 5692 5697 5704 5708 5713 5713 5714 5720 5727 5738 5737 5730 5742 5750 5747 5750 5757 5759 5759 5754 5748 5744 5741 5742 5736 5732
5610 5606 5600 5598 5617 5616 5626 5639 5644 5645 5647 5654 5656 5659 5664 5668 5671 5675 5679 5687 5691 5694 5695 5697 5700 5704 5712 5720 5730 5733 5734 5736 5736 5729 5737 5742 5746 5744 5739 5738 5732 5728 5724 5720